Regional Weather Roundup
Issued by NWS Grand Forks, ND

Home | Current Version | Previous Version | Graphics & Text | Print | Product List | Glossary On
Versions: 1 2 3 4 5 6 7 8 9 10 11 12 13 14 15 16 17 18 19 20 21 22 23 24 25 26 27 28 29 30 31 32 33 34 35 36 37 38 39 40 41 42 43 44 45 46 47 48 49 50
000
ASUS43 KFGF 070010
RWRFGF
PRAIRIE TO PINES  WEATHER ROUNDUP
NATIONAL WEATHER SERVICE EASTERN NORTH DAKOTA/GRAND FORKS ND
700 PM CDT MON JUL 06 2015

 **SATELLITE DATA USED TO AUGMENT SKY COVER AT AUTOMATED STATIONS**
 *****  WEATHER ACROSS EASTERN NORTH DAKOTA  *****

CITY           SKY/WX    TMP DP  RH WIND       PRES   REMARKS
GRAND FORKS    MOSUNNY   64  47  53 N18       30.12R
6HR MIN TEMP:  61; 6HR MAX TEMP:  66;

GRAND FRKS AFB SUNNY     64  47  54 NE14      30.13R
GRAND FRKS NWS   N/A     63 N/A N/A N18         N/A
DEVILS LAKE    MOSUNNY   64  45  48 N14       30.13S
6HR MIN TEMP:  61; 6HR MAX TEMP:  66;

FARGO          PTSUNNY   64  48  56 N12       30.10S
WAHPETON ARPT  PTCLDY    64  45  48 N12G20    30.09F
$$

 ***** WEATHER ACROSS CENTRAL AND WESTERN NORTH DAKOTA  *****

CITY           SKY/WX    TMP DP  RH WIND       PRES   REMARKS
BISMARCK       PTSUNNY   68  52  56 NE12      30.15S HAZE
6HR MIN TEMP:  68; 6HR MAX TEMP:  72;

MINOT          MOSUNNY   67  45  45 N12       30.16F
6HR MIN TEMP:  60; 6HR MAX TEMP:  68;

JAMESTOWN      MOSUNNY   65  49  56 N10G22    30.13S
6HR MIN TEMP:  64; 6HR MAX TEMP:  68;

MINOT AFB      SUNNY     69  46  44 N8        30.15F
GARRISON         N/A     68  48  48 N9        30.16F
WILLISTON      MOSUNNY   72  47  40 N8        30.17F
6HR MIN TEMP:  66; 6HR MAX TEMP:  73;

DICKINSON      MOSUNNY   68  51  54 NE12      30.16S HAZE
6HR MIN TEMP:  66; 6HR MAX TEMP:  74;

HETTINGER      MOSUNNY   72  47  40 VRB6      30.17F
6HR MIN TEMP:  66; 6HR MAX TEMP:  73;

$$

 *****  OTHER AIRPORT OBSERVATIONS IN OUR AREA  *****

CITY           SKY/WX    TMP DP  RH WIND       PRES   REMARKS
WALHALLA       FAIR      63  46  55 MISG      30.14S
GRAFTON AIRPOR FAIR      63  46  55 N14G20    30.14S
VALLEY CITY AR FAIR      64  48  55 N15G21    30.12F
CANDO          FAIR      63  45  51 N8        30.16S
CAVALIER APRT  MOCLDY    64  45  48 N13G18    30.13F
GWINNER        FAIR      68  50  52 N14G20    30.11S
SHEYENNE NWR     N/A     67  48  51 N10       29.95S
ROLLA          FAIR      61  45  55 N9        30.17S
 ***** THE ABOVE OBSERVATIONS ARE NON NWS ARE NOT QUALITY
       CONTROLLED AND MAY MIS-REPORT RAIN FOR SNOW...
$$

  *****  WEATHER ACROSS NORTHERN MINNESOTA  *****

CITY           SKY/WX    TMP DP  RH WIND       PRES   REMARKS
FLAG ISLAND    CLOUDY    61  45  55 N10       30.06F
WARROAD        CLOUDY    61  48  63 NW10      30.09S
ROSEAU         CLOUDY    59  48  67 NW9       30.10S
HALLOCK        MOSUNNY   63  46  55 N10       30.11S
THF RVR FALLS  CLOUDY    61  45  55 NW13      30.11S
6HR MIN TEMP:  59; 6HR MAX TEMP:  63;

BAUDETTE       CLOUDY    59  44  57 N7        30.06S
6HR MIN TEMP:  58; 6HR MAX TEMP:  64;

WASKISH        CLOUDY    59  46  63 N8G17     30.07R
CROOKSTON      MOSUNNY   63  46  55 N16G23    30.12S
STEPHEN NDAWN    N/A     63  46  55 N10         N/A
GREENBUSH NDAW   N/A     61  48  63 N8          N/A
$$
  *****  WEATHER ACROSS CENTRAL AND WEST MINNESOTA  *****

CITY           SKY/WX    TMP DP  RH WIND       PRES   REMARKS
FOSSTON        CLOUDY    57  45  62 NW9       30.11S
BEMIDJI        CLOUDY    59  46  62 NW13      30.07S
PARK RAPIDS    CLOUDY    61  43  51 N15G23    30.07S
6HR MIN TEMP:  60; 6HR MAX TEMP:  66;

ELBOW LAKE     FAIR      64  47  54 N14G25    30.07F
WADENA         PTSUNNY   61  45  55 N12G18    30.07S
DETROIT LAKES  MOSUNNY   63  45  51 N10G23    30.10F
MOORHEAD       PTSUNNY   64  48  55 N15       30.10F
FERGUS FALLS   SUNNY     64  46  52 N14G29    30.08F
MORRIS MN      MOSUNNY   66  48  52 N22G28    30.06F
STAPLES        PTSUNNY   59  45  58 N15       30.06F
$$
  *****  WEATHER ELSEWHERE ACROSS MINNESOTA  *****

CITY           SKY/WX    TMP DP  RH WIND       PRES   REMARKS
DULUTH         PTSUNNY   63  47  55 N14G20    29.96R
6HR MIN TEMP:  62; 6HR MAX TEMP:  68; 6HR PCP:  0.02;

INTRNTL FALLS  CLOUDY    58  43  57 N13       30.05R
6HR MIN TEMP:  58; 6HR MAX TEMP:  64;

ELY            CLOUDY    57  46  67 NW12      29.99R
CLOQUET        PTSUNNY   63  46  55 NW10G21   29.98R
WHEATON        SUNNY     64  48  55 N13G24    30.09F
BRAINERD       CLOUDY    61  46  57 N12       30.04R
6HR MIN TEMP:  61; 6HR MAX TEMP:  71;

HIBBING        CLOUDY    60  44  55 NW15      30.01R
6HR MIN TEMP:  60; 6HR MAX TEMP:  68;

ALEXANDRIA     MOSUNNY   63  45  51 N18G30    30.07S
6HR MIN TEMP:  63; 6HR MAX TEMP:  70;

SAINT CLOUD    MOSUNNY   66  48  52 N17G24    29.99R
6HR MIN TEMP:  66; 6HR MAX TEMP:  75;

MINNEAPOLIS    PTSUNNY   71  55  56 NW14      29.95R SMOKE
6HR MIN TEMP:  64; 6HR MAX TEMP:  73; 6HR PCP: TRACE;

$$

  *****  WEATHER ACROSS SOUTH DAKOTA  *****

CITY           SKY/WX    TMP DP  RH WIND       PRES   REMARKS
SIOUX FALLS    MOSUNNY   70  56  61 N14G24    30.05R HAZE
6HR MIN TEMP:  70; 6HR MAX TEMP:  74;

BROOKINGS      MOSUNNY   66  52  59 N14G21    30.08S
WATERTOWN      PTSUNNY   68  51  54 N15       30.07F
6HR MIN TEMP:  67; 6HR MAX TEMP:  72;

HURON          SUNNY     72  54  53 N16       30.06F HAZE
6HR MIN TEMP:  72; 6HR MAX TEMP:  75;

SISSETON         N/A     68  50  52 N17       30.07F
ABERDEEN       MOSUNNY   71  53  52 N14       30.09F HAZE
6HR MIN TEMP:  70; 6HR MAX TEMP:  74;

MITCHELL       SUNNY     72  54  53 N12       30.07F HAZE
PIERRE         SUNNY     73  54  51 N10       30.10F
6HR MIN TEMP:  73; 6HR MAX TEMP:  76;

MOBRIDGE       MOSUNNY   73  52  47 N12       30.11S HAZE
RAPID CITY     CLOUDY    69  53  56 N6        30.18F
6HR MIN TEMP:  64; 6HR MAX TEMP:  73;

$$

  *****  SOME WEATHER IN NEARBY STATES *****

CITY           SKY/WX    TMP DP  RH WIND       PRES   REMARKS
GLASGOW MT     SUNNY     74  41  30 VRB6      30.13F
6HR MIN TEMP:  68; 6HR MAX TEMP:  75;

GREAT FALLS MT SUNNY     73  49  42 NE5       30.10F
6HR MIN TEMP:  62; 6HR MAX TEMP:  74;

CHEYENNE WY    CLOUDY    57  52  83 E9        30.30F HAZE
6HR MIN TEMP:  54; 6HR MAX TEMP:  60; 6HR PCP: TRACE;

SCOTTSBLUFF NE CLOUDY    68  55  63 NE6       30.21F HAZE
6HR MIN TEMP:  65; 6HR MAX TEMP:  70;

OMAHA NE       CLOUDY    73  64  73 N15       29.94R
6HR MIN TEMP:  73; 6HR MAX TEMP:  77; 6HR PCP:  0.01;

DES MOINES IA  CLOUDY    73  68  84 N14G20    29.90R
6HR MIN TEMP:  72; 6HR MAX TEMP:  78; 6HR PCP:  0.09;

DAVENPORT IA   HVY RAIN  71  70  96 SW6       29.88R VSB 1/2
6HR MIN TEMP:  71; 6HR MAX TEMP:  78; 6HR PCP:  1.73;

CHICAGO IL     PTSUNNY   79  69  71 S10       29.84F
6HR MIN TEMP:  73; 6HR MAX TEMP:  85; 6HR PCP:  0.05;

EAU CLAIRE WI  CLOUDY    65  57  75 N10       29.92R HAZE
6HR MIN TEMP:  64; 6HR MAX TEMP:  73; 6HR PCP:  0.32;

LA CROSSE WI   PTSUNNY   68  60  75 N13       29.87R
6HR MIN TEMP:  67; 6HR MAX TEMP:  78; 6HR PCP:  0.38;

$$

  *****  SOME NATIONAL WEATHER *****

CITY           SKY/WX    TMP DP  RH WIND       PRES   REMARKS
LA GUARDIA NY  MOCLDY    77  63  61 S10       30.10F
6HR MIN TEMP:  77; 6HR MAX TEMP:  83;

RALEIGH NC     MOCLDY    84  68  58 S8        30.07S
6HR MIN TEMP:  84; 6HR MAX TEMP:  89;

ATLANTA GA     PTCLDY    81  72  74 SW3       30.11S
6HR MIN TEMP:  76; 6HR MAX TEMP:  84; 6HR PCP:  0.04;

NEW ORLEANS LA MOSUNNY   88  73  61 S12       30.06F HX  95
6HR MIN TEMP:  88; 6HR MAX TEMP:  92;

OKLAHOMA CITY  PTSUNNY   87  73  62 S15G26    29.85R HX  94
6HR MIN TEMP:  87; 6HR MAX TEMP:  91;

ALBUQUERQUE NM CLOUDY    73  61  64 E20       30.09R
                                      6HR PCP:  0.69;

SALT LAKE CITY PTSUNNY   80  58  46 SE13      30.05S
6HR MIN TEMP:  74; 6HR MAX TEMP:  89; 6HR PCP: TRACE;

LOS ANGELES CA CLOUDY    67  60  78 W13       29.98F


USA.gov is the U.S. government's official web portal to all federal, state and local government web resources and services.